Time,TemperatureF,DewpointF,PressureIn,WindDirection,WindDirectionDegrees,WindSpeedMPH,WindSpeedGustMPH,Humidity,HourlyPrecipIn,Conditions,Clouds,dailyrainin,SoftwareType,DateUTC
2013-04-21 00:00:00,36.9,-99.9,-100.00,North,-999,-999.0,-999.0,48,-99.99,,,-99.99,,2013-04-21 04:00:00,
2013-04-21 00:03:00,36.9,-99.9,-100.00,North,-999,-999.0,-999.0,49,-99.99,,,-99.99,,2013-04-21 04:03:00,
2013-04-21 00:05:00,36.7,-99.9,-100.00,North,-999,-999.0,-999.0,49,-99.99,,,-99.99,,2013-04-21 04:05:00,
2013-04-21 00:11:00,36.5,-99.9,-100.00,North,-999,-999.0,-999.0,49,-99.99,,,-99.99,,2013-04-21 04:11:00,
2013-04-21 00:18:00,36.3,18.9,-100.00,North,-999,-999.0,-999.0,51,-99.99,,,-99.99,,2013-04-21 04:18:00,
2013-04-21 00:21:00,36.3,19.0,-100.00,North,-999,-999.0,-999.0,51,-99.99,,,-99.99,,2013-04-21 04:21:00,
2013-04-21 00:26:00,36.0,18.9,-100.00,North,-999,-999.0,-999.0,52,-99.99,,,-99.99,,2013-04-21 04:26:00,
2013-04-21 00:31:00,36.0,18.8,-100.00,North,-999,-999.0,-999.0,52,-99.99,,,-99.99,,2013-04-21 04:31:00,
2013-04-21 00:33:00,35.8,18.8,-100.00,North,-999,-999.0,-999.0,52,-99.99,,,-99.99,,2013-04-21 04:33:00,
2013-04-21 00:38:00,35.6,18.9,-100.00,North,-999,-999.0,-999.0,53,-99.99,,,-99.99,,2013-04-21 04:38:00,
2013-04-21 00:43:00,35.6,19.2,-100.00,North,-999,-999.0,-999.0,54,-99.99,,,-99.99,,2013-04-21 04:43:00,
2013-04-21 00:48:00,35.2,19.1,-100.00,North,-999,-999.0,-999.0,55,-99.99,,,-99.99,,2013-04-21 04:48:00,
2013-04-21 00:53:00,35.1,19.0,-100.00,North,-999,-999.0,-999.0,55,-99.99,,,-99.99,,2013-04-21 04:53:00,
2013-04-21 00:58:00,34.9,18.5,-100.00,North,-999,-999.0,-999.0,54,-99.99,,,-99.99,,2013-04-21 04:58:00,
2013-04-21 01:03:00,34.9,19.4,-100.00,North,-999,-999.0,-999.0,57,-99.99,,,-99.99,,2013-04-21 05:03:00,
2013-04-21 01:08:00,34.5,19.0,-100.00,North,-999,-999.0,-999.0,57,-99.99,,,-99.99,,2013-04-21 05:08:00,
2013-04-21 01:13:00,34.3,19.3,-100.00,North,-999,-999.0,-999.0,58,-99.99,,,-99.99,,2013-04-21 05:13:00,
2013-04-21 01:18:00,34.2,18.1,-100.00,North,-999,-999.0,-999.0,55,-99.99,,,-99.99,,2013-04-21 05:18:00,
2013-04-21 01:23:00,34.2,17.9,-100.00,North,-999,-999.0,-999.0,54,-99.99,,,-99.99,,2013-04-21 05:23:00,
2013-04-21 01:28:00,33.8,17.7,-100.00,North,-999,-999.0,-999.0,55,-99.99,,,-99.99,,2013-04-21 05:28:00,
2013-04-21 01:33:00,33.6,17.7,-100.00,North,-999,-999.0,-999.0,55,-99.99,,,-99.99,,2013-04-21 05:33:00,
2013-04-21 01:38:00,33.4,17.3,-100.00,North,-999,-999.0,-999.0,55,-99.99,,,-99.99,,2013-04-21 05:38:00,
2013-04-21 01:43:00,33.6,17.0,-100.00,North,-999,-999.0,-999.0,53,-99.99,,,-99.99,,2013-04-21 05:43:00,
2013-04-21 01:48:00,33.4,15.8,-100.00,North,-999,-999.0,-999.0,51,-99.99,,,-99.99,,2013-04-21 05:48:00,
2013-04-21 01:53:00,33.4,16.3,-100.00,North,-999,-999.0,-999.0,52,-99.99,,,-99.99,,2013-04-21 05:53:00,
2013-04-21 01:58:00,33.4,15.9,-100.00,North,-999,-999.0,-999.0,51,-99.99,,,-99.99,,2013-04-21 05:58:00,
2013-04-21 02:03:00,33.3,15.6,-100.00,North,-999,-999.0,-999.0,51,-99.99,,,-99.99,,2013-04-21 06:03:00,
2013-04-21 02:08:00,33.1,15.2,-100.00,North,-999,-999.0,-999.0,50,-99.99,,,-99.99,,2013-04-21 06:08:00,
2013-04-21 02:13:00,33.1,15.9,-100.00,North,-999,-999.0,-999.0,52,-99.99,,,-99.99,,2013-04-21 06:13:00,
2013-04-21 02:18:00,32.9,15.8,-100.00,North,-999,-999.0,-999.0,52,-99.99,,,-99.99,,2013-04-21 06:18:00,
2013-04-21 02:23:00,32.7,15.5,-100.00,North,-999,-999.0,-999.0,52,-99.99,,,-99.99,,2013-04-21 06:23:00,
2013-04-21 02:28:00,32.5,15.7,-100.00,North,-999,-999.0,-999.0,53,-99.99,,,-99.99,,2013-04-21 06:28:00,
2013-04-21 02:33:00,32.5,15.6,-100.00,North,-999,-999.0,-999.0,53,-99.99,,,-99.99,,2013-04-21 06:33:00,
2013-04-21 02:38:00,32.4,15.6,-100.00,North,-999,-999.0,-999.0,53,-99.99,,,-99.99,,2013-04-21 06:38:00,
2013-04-21 02:43:00,32.4,15.5,-100.00,North,-999,-999.0,-999.0,53,-99.99,,,-99.99,,2013-04-21 06:43:00,
2013-04-21 02:48:00,32.2,15.4,-100.00,North,-999,-999.0,-999.0,53,-99.99,,,-99.99,,2013-04-21 06:48:00,
2013-04-21 02:53:00,32.2,15.2,-100.00,North,-999,-999.0,-999.0,52,-99.99,,,-99.99,,2013-04-21 06:53:00,
2013-04-21 02:58:00,32.0,15.1,-100.00,North,-999,-999.0,-999.0,53,-99.99,,,-99.99,,2013-04-21 06:58:00,
2013-04-21 03:03:00,32.0,15.1,-100.00,North,-999,-999.0,-999.0,53,-99.99,,,-99.99,,2013-04-21 07:03:00,
2013-04-21 03:08:00,31.8,15.2,-100.00,North,-999,-999.0,-999.0,53,-99.99,,,-99.99,,2013-04-21 07:08:00,
2013-04-21 03:13:00,31.6,15.2,-100.00,North,-999,-999.0,-999.0,54,-99.99,,,-99.99,,2013-04-21 07:13:00,
2013-04-21 03:18:00,31.6,15.2,-100.00,North,-999,-999.0,-999.0,54,-99.99,,,-99.99,,2013-04-21 07:18:00,
2013-04-21 03:23:00,31.5,15.3,-100.00,North,-999,-999.0,-999.0,55,-99.99,,,-99.99,,2013-04-21 07:23:00,
2013-04-21 03:28:00,31.5,15.1,-100.00,North,-999,-999.0,-999.0,54,-99.99,,,-99.99,,2013-04-21 07:28:00,
2013-04-21 03:33:00,31.3,15.0,-100.00,North,-999,-999.0,-999.0,54,-99.99,,,-99.99,,2013-04-21 07:33:00,
2013-04-21 03:38:00,31.1,15.2,-100.00,North,-999,-999.0,-999.0,55,-99.99,,,-99.99,,2013-04-21 07:38:00,
2013-04-21 03:43:00,30.9,16.0,-100.00,North,-999,-999.0,-999.0,58,-99.99,,,-99.99,,2013-04-21 07:43:00,
2013-04-21 03:51:00,30.6,15.7,-100.00,North,-999,-999.0,-999.0,58,-99.99,,,-99.99,,2013-04-21 07:51:00,
2013-04-21 03:56:00,30.4,16.6,-100.00,North,-999,-999.0,-999.0,61,-99.99,,,-99.99,,2013-04-21 07:56:00,
2013-04-21 04:01:00,30.4,16.6,-100.00,North,-999,-999.0,-999.0,61,-99.99,,,-99.99,,2013-04-21 08:01:00,
2013-04-21 04:06:00,30.2,17.3,-100.00,North,-999,-999.0,-999.0,64,-99.99,,,-99.99,,2013-04-21 08:06:00,
2013-04-21 04:11:00,30.2,16.1,-100.00,North,-999,-999.0,-999.0,60,-99.99,,,-99.99,,2013-04-21 08:11:00,
2013-04-21 04:16:00,30.0,16.4,-100.00,North,-999,-999.0,-999.0,62,-99.99,,,-99.99,,2013-04-21 08:16:00,
2013-04-21 04:21:00,29.8,16.5,-100.00,North,-999,-999.0,-999.0,63,-99.99,,,-99.99,,2013-04-21 08:21:00,
2013-04-21 04:26:00,29.8,18.2,-100.00,North,-999,-999.0,-999.0,67,-99.99,,,-99.99,,2013-04-21 08:26:00,
2013-04-21 04:31:00,29.7,18.2,-100.00,North,-999,-999.0,-999.0,68,-99.99,,,-99.99,,2013-04-21 08:31:00,
2013-04-21 04:36:00,29.5,16.2,-100.00,North,-999,-999.0,-999.0,63,-99.99,,,-99.99,,2013-04-21 08:36:00,
2013-04-21 04:41:00,29.5,17.3,-100.00,North,-999,-999.0,-999.0,66,-99.99,,,-99.99,,2013-04-21 08:41:00,
2013-04-21 04:46:00,29.5,18.4,-100.00,North,-999,-999.0,-999.0,69,-99.99,,,-99.99,,2013-04-21 08:46:00,
2013-04-21 04:51:00,29.3,17.5,-100.00,North,-999,-999.0,-999.0,67,-99.99,,,-99.99,,2013-04-21 08:51:00,
2013-04-21 04:56:00,29.3,17.7,-100.00,North,-999,-999.0,-999.0,67,-99.99,,,-99.99,,2013-04-21 08:56:00,
2013-04-21 05:01:00,29.1,17.6,-100.00,North,-999,-999.0,-999.0,68,-99.99,,,-99.99,,2013-04-21 09:01:00,
2013-04-21 05:06:00,28.9,17.7,-100.00,North,-999,-999.0,-999.0,68,-99.99,,,-99.99,,2013-04-21 09:06:00,
2013-04-21 05:11:00,28.8,18.4,-100.00,North,-999,-999.0,-999.0,71,-99.99,,,-99.99,,2013-04-21 09:11:00,
2013-04-21 05:16:00,28.6,17.4,-100.00,North,-999,-999.0,-999.0,68,-99.99,,,-99.99,,2013-04-21 09:16:00,
2013-04-21 05:21:00,28.6,17.4,-100.00,North,-999,-999.0,-999.0,69,-99.99,,,-99.99,,2013-04-21 09:21:00,
2013-04-21 05:26:00,28.6,18.2,-100.00,North,-999,-999.0,-999.0,71,-99.99,,,-99.99,,2013-04-21 09:26:00,
2013-04-21 05:31:00,28.6,18.4,-100.00,North,-999,-999.0,-999.0,71,-99.99,,,-99.99,,2013-04-21 09:31:00,
2013-04-21 05:36:00,28.4,19.0,-100.00,North,-999,-999.0,-999.0,74,-99.99,,,-99.99,,2013-04-21 09:36:00,
2013-04-21 05:41:00,28.4,18.5,-100.00,North,-999,-999.0,-999.0,72,-99.99,,,-99.99,,2013-04-21 09:41:00,
2013-04-21 05:46:00,28.4,17.7,-100.00,North,-999,-999.0,-999.0,70,-99.99,,,-99.99,,2013-04-21 09:46:00,
2013-04-21 05:51:00,28.4,18.5,-100.00,North,-999,-999.0,-999.0,72,-99.99,,,-99.99,,2013-04-21 09:51:00,
2013-04-21 05:56:00,28.4,17.6,-100.00,North,-999,-999.0,-999.0,70,-99.99,,,-99.99,,2013-04-21 09:56:00,
2013-04-21 06:01:00,28.4,18.7,-100.00,North,-999,-999.0,-999.0,73,-99.99,,,-99.99,,2013-04-21 10:01:00,
2013-04-21 06:06:00,28.2,20.3,-100.00,North,-999,-999.0,-999.0,78,-99.99,,,-99.99,,2013-04-21 10:06:00,
2013-04-21 06:11:00,28.0,19.6,-100.00,North,-999,-999.0,-999.0,76,-99.99,,,-99.99,,2013-04-21 10:11:00,
2013-04-21 06:16:00,28.0,19.9,-100.00,North,-999,-999.0,-999.0,77,-99.99,,,-99.99,,2013-04-21 10:16:00,
2013-04-21 06:21:00,28.0,20.6,-100.00,North,-999,-999.0,-999.0,79,-99.99,,,-99.99,,2013-04-21 10:21:00,
2013-04-21 06:26:00,28.0,18.7,-100.00,North,-999,-999.0,-999.0,74,-99.99,,,-99.99,,2013-04-21 10:26:00,
2013-04-21 06:31:00,28.2,18.5,-100.00,North,-999,-999.0,-999.0,73,-99.99,,,-99.99,,2013-04-21 10:31:00,
2013-04-21 06:36:00,28.2,18.9,-100.00,North,-999,-999.0,-999.0,74,-99.99,,,-99.99,,2013-04-21 10:36:00,
2013-04-21 06:41:00,28.2,19.6,-100.00,North,-999,-999.0,-999.0,76,-99.99,,,-99.99,,2013-04-21 10:41:00,
2013-04-21 06:46:00,28.4,19.5,-100.00,North,-999,-999.0,-999.0,75,-99.99,,,-99.99,,2013-04-21 10:46:00,
2013-04-21 06:51:00,28.6,19.1,-100.00,North,-999,-999.0,-999.0,73,-99.99,,,-99.99,,2013-04-21 10:51:00,
2013-04-21 06:56:00,28.9,19.2,-100.00,North,-999,-999.0,-999.0,73,-99.99,,,-99.99,,2013-04-21 10:56:00,
2013-04-21 07:01:00,29.1,17.7,-100.00,North,-999,-999.0,-999.0,68,-99.99,,,-99.99,,2013-04-21 11:01:00,
2013-04-21 07:06:00,29.7,17.4,-100.00,North,-999,-999.0,-999.0,65,-99.99,,,-99.99,,2013-04-21 11:06:00,
2013-04-21 07:11:00,30.0,17.5,-100.00,North,-999,-999.0,-999.0,65,-99.99,,,-99.99,,2013-04-21 11:11:00,
2013-04-21 07:16:00,30.6,18.3,-100.00,North,-999,-999.0,-999.0,65,-99.99,,,-99.99,,2013-04-21 11:16:00,
2013-04-21 07:21:00,31.3,18.7,-100.00,North,-999,-999.0,-999.0,65,-99.99,,,-99.99,,2013-04-21 11:21:00,
2013-04-21 07:26:00,31.6,16.7,-100.00,North,-999,-999.0,-999.0,58,-99.99,,,-99.99,,2013-04-21 11:26:00,
2013-04-21 07:31:00,32.2,17.3,-100.00,North,-999,-999.0,-999.0,58,-99.99,,,-99.99,,2013-04-21 11:31:00,
2013-04-21 07:36:00,32.7,17.4,-100.00,North,-999,-999.0,-999.0,57,-99.99,,,-99.99,,2013-04-21 11:36:00,
2013-04-21 07:41:00,32.9,16.2,-100.00,North,-999,-999.0,-999.0,53,-99.99,,,-99.99,,2013-04-21 11:41:00,
2013-04-21 07:46:00,33.4,16.2,-100.00,North,-999,-999.0,-999.0,52,-99.99,,,-99.99,,2013-04-21 11:46:00,
2013-04-21 07:51:00,33.8,16.3,-100.00,North,-999,-999.0,-999.0,51,-99.99,,,-99.99,,2013-04-21 11:51:00,
2013-04-21 07:56:00,34.2,16.7,-100.00,North,-999,-999.0,-999.0,51,-99.99,,,-99.99,,2013-04-21 11:56:00,
2013-04-21 08:01:00,34.2,-99.9,-100.00,North,-999,-999.0,-999.0,49,-99.99,,,-99.99,,2013-04-21 12:01:00,
2013-04-21 08:06:00,34.5,17.3,-100.00,North,-999,-999.0,-999.0,52,-99.99,,,-99.99,,2013-04-21 12:06:00,
2013-04-21 08:11:00,34.7,-99.9,-100.00,North,-999,-999.0,-999.0,46,-99.99,,,-99.99,,2013-04-21 12:11:00,
2013-04-21 08:16:00,35.1,-99.9,-100.00,North,-999,-999.0,-999.0,46,-99.99,,,-99.99,,2013-04-21 12:16:00,
2013-04-21 08:21:00,35.4,-99.9,-100.00,North,-999,-999.0,-999.0,46,-99.99,,,-99.99,,2013-04-21 12:21:00,
2013-04-21 08:26:00,35.4,-99.9,-100.00,North,-999,-999.0,-999.0,48,-99.99,,,-99.99,,2013-04-21 12:26:00,
2013-04-21 08:31:00,35.6,-99.9,-100.00,North,-999,-999.0,-999.0,45,-99.99,,,-99.99,,2013-04-21 12:31:00,
2013-04-21 08:36:00,35.6,-99.9,-100.00,North,-999,-999.0,-999.0,45,-99.99,,,-99.99,,2013-04-21 12:36:00,
2013-04-21 08:41:00,36.0,-99.9,-100.00,North,-999,-999.0,-999.0,44,-99.99,,,-99.99,,2013-04-21 12:41:00,
2013-04-21 08:46:00,36.3,-99.9,-100.00,North,-999,-999.0,-999.0,45,-99.99,,,-99.99,,2013-04-21 12:46:00,
2013-04-21 08:51:00,36.3,-99.9,-100.00,North,-999,-999.0,-999.0,43,-99.99,,,-99.99,,2013-04-21 12:51:00,
2013-04-21 08:56:00,36.9,-99.9,-100.00,North,-999,-999.0,-999.0,45,-99.99,,,-99.99,,2013-04-21 12:56:00,
2013-04-21 09:01:00,36.7,-99.9,-100.00,North,-999,-999.0,-999.0,44,-99.99,,,-99.99,,2013-04-21 13:01:00,
2013-04-21 09:06:00,36.9,-99.9,-100.00,North,-999,-999.0,-999.0,43,-99.99,,,-99.99,,2013-04-21 13:06:00,
2013-04-21 09:11:00,37.2,-99.9,-100.00,North,-999,-999.0,-999.0,42,-99.99,,,-99.99,,2013-04-21 13:11:00,
2013-04-21 09:16:00,37.4,-99.9,-100.00,North,-999,-999.0,-999.0,45,-99.99,,,-99.99,,2013-04-21 13:16:00,
2013-04-21 09:21:00,37.9,-99.9,-100.00,North,-999,-999.0,-999.0,42,-99.99,,,-99.99,,2013-04-21 13:21:00,
2013-04-21 09:26:00,38.1,-99.9,-100.00,North,-999,-999.0,-999.0,43,-99.99,,,-99.99,,2013-04-21 13:26:00,
2013-04-21 09:31:00,38.3,-99.9,-100.00,North,-999,-999.0,-999.0,42,-99.99,,,-99.99,,2013-04-21 13:31:00,
2013-04-21 09:36:00,38.8,-99.9,-100.00,North,-999,-999.0,-999.0,41,-99.99,,,-99.99,,2013-04-21 13:36:00,
2013-04-21 09:41:00,39.0,-99.9,-100.00,North,-999,-999.0,-999.0,40,-99.99,,,-99.99,,2013-04-21 13:41:00,
2013-04-21 09:46:00,38.8,-99.9,-100.00,North,-999,-999.0,-999.0,41,-99.99,,,-99.99,,2013-04-21 13:46:00,
2013-04-21 09:51:00,39.0,-99.9,-100.00,North,-999,-999.0,-999.0,41,-99.99,,,-99.99,,2013-04-21 13:51:00,
2013-04-21 09:56:00,39.0,-99.9,-100.00,North,-999,-999.0,-999.0,40,-99.99,,,-99.99,,2013-04-21 13:56:00,
2013-04-21 10:01:00,39.0,-99.9,-100.00,North,-999,-999.0,-999.0,40,-99.99,,,-99.99,,2013-04-21 14:01:00,
2013-04-21 10:06:00,39.4,-99.9,-100.00,North,-999,-999.0,-999.0,39,-99.99,,,-99.99,,2013-04-21 14:06:00,
2013-04-21 10:11:00,39.9,-99.9,-100.00,North,-999,-999.0,-999.0,40,-99.99,,,-99.99,,2013-04-21 14:11:00,
2013-04-21 10:16:00,40.3,-99.9,-100.00,North,-999,-999.0,-999.0,39,-99.99,,,-99.99,,2013-04-21 14:16:00,
2013-04-21 10:21:00,40.5,-99.9,-100.00,North,-999,-999.0,-999.0,38,-99.99,,,-99.99,,2013-04-21 14:21:00,
2013-04-21 10:26:00,40.8,-99.9,-100.00,North,-999,-999.0,-999.0,37,-99.99,,,-99.99,,2013-04-21 14:26:00,
2013-04-21 10:31:00,40.8,-99.9,-100.00,North,-999,-999.0,-999.0,38,-99.99,,,-99.99,,2013-04-21 14:31:00,
2013-04-21 10:36:00,41.0,-99.9,-100.00,North,-999,-999.0,-999.0,38,-99.99,,,-99.99,,2013-04-21 14:36:00,
2013-04-21 10:41:00,41.2,-99.9,-100.00,North,-999,-999.0,-999.0,37,-99.99,,,-99.99,,2013-04-21 14:41:00,
2013-04-21 10:46:00,41.2,-99.9,-100.00,North,-999,-999.0,-999.0,36,-99.99,,,-99.99,,2013-04-21 14:46:00,
2013-04-21 10:51:00,41.5,-99.9,-100.00,North,-999,-999.0,-999.0,37,-99.99,,,-99.99,,2013-04-21 14:51:00,
2013-04-21 10:56:00,41.7,-99.9,-100.00,North,-999,-999.0,-999.0,35,-99.99,,,-99.99,,2013-04-21 14:56:00,
2013-04-21 11:01:00,42.1,-99.9,-100.00,North,-999,-999.0,-999.0,37,-99.99,,,-99.99,,2013-04-21 15:01:00,
2013-04-21 11:06:00,42.4,-99.9,-100.00,North,-999,-999.0,-999.0,36,-99.99,,,-99.99,,2013-04-21 15:06:00,
2013-04-21 11:11:00,42.8,-99.9,-100.00,North,-999,-999.0,-999.0,36,-99.99,,,-99.99,,2013-04-21 15:11:00,
2013-04-21 11:16:00,42.8,-99.9,-100.00,North,-999,-999.0,-999.0,35,-99.99,,,-99.99,,2013-04-21 15:16:00,
2013-04-21 11:21:00,42.8,-99.9,-100.00,North,-999,-999.0,-999.0,35,-99.99,,,-99.99,,2013-04-21 15:21:00,
2013-04-21 11:26:00,43.3,-99.9,-100.00,North,-999,-999.0,-999.0,35,-99.99,,,-99.99,,2013-04-21 15:26:00,
2013-04-21 11:31:00,43.2,-99.9,-100.00,North,-999,-999.0,-999.0,36,-99.99,,,-99.99,,2013-04-21 15:31:00,
2013-04-21 11:36:00,43.5,-99.9,-100.00,North,-999,-999.0,-999.0,34,-99.99,,,-99.99,,2013-04-21 15:36:00,
2013-04-21 11:41:00,44.2,-99.9,-100.00,North,-999,-999.0,-999.0,34,-99.99,,,-99.99,,2013-04-21 15:41:00,
2013-04-21 11:46:00,44.4,-99.9,-100.00,North,-999,-999.0,-999.0,33,-99.99,,,-99.99,,2013-04-21 15:46:00,
2013-04-21 11:51:00,44.2,-99.9,-100.00,North,-999,-999.0,-999.0,32,-99.99,,,-99.99,,2013-04-21 15:51:00,
2013-04-21 11:56:00,44.8,-99.9,-100.00,North,-999,-999.0,-999.0,34,-99.99,,,-99.99,,2013-04-21 15:56:00,
2013-04-21 12:01:00,45.1,-99.9,-100.00,North,-999,-999.0,-999.0,33,-99.99,,,-99.99,,2013-04-21 16:01:00,
2013-04-21 12:07:00,45.5,-99.9,-100.00,North,-999,-999.0,-999.0,33,-99.99,,,-99.99,,2013-04-21 16:07:00,
2013-04-21 12:12:00,45.7,-99.9,-100.00,North,-999,-999.0,-999.0,33,-99.99,,,-99.99,,2013-04-21 16:12:00,
2013-04-21 12:17:00,46.2,-99.9,-100.00,North,-999,-999.0,-999.0,31,-99.99,,,-99.99,,2013-04-21 16:17:00,
2013-04-21 12:22:00,45.7,-99.9,-100.00,North,-999,-999.0,-999.0,31,-99.99,,,-99.99,,2013-04-21 16:22:00,
2013-04-21 12:27:00,46.4,-99.9,-100.00,North,-999,-999.0,-999.0,31,-99.99,,,-99.99,,2013-04-21 16:27:00,
2013-04-21 12:32:00,46.4,-99.9,-100.00,North,-999,-999.0,-999.0,32,-99.99,,,-99.99,,2013-04-21 16:32:00,
2013-04-21 12:37:00,46.9,-99.9,-100.00,North,-999,-999.0,-999.0,30,-99.99,,,-99.99,,2013-04-21 16:37:00,
2013-04-21 12:42:00,46.4,-99.9,-100.00,North,-999,-999.0,-999.0,30,-99.99,,,-99.99,,2013-04-21 16:42:00,
2013-04-21 12:47:00,46.8,-99.9,-100.00,North,-999,-999.0,-999.0,31,-99.99,,,-99.99,,2013-04-21 16:47:00,
2013-04-21 12:52:00,46.9,-99.9,-100.00,North,-999,-999.0,-999.0,29,-99.99,,,-99.99,,2013-04-21 16:52:00,
2013-04-21 12:57:00,47.7,-99.9,-100.00,North,-999,-999.0,-999.0,30,-99.99,,,-99.99,,2013-04-21 16:57:00,
2013-04-21 13:02:00,47.3,-99.9,-100.00,North,-999,-999.0,-999.0,29,-99.99,,,-99.99,,2013-04-21 17:02:00,
2013-04-21 13:07:00,47.5,-99.9,-100.00,North,-999,-999.0,-999.0,30,-99.99,,,-99.99,,2013-04-21 17:07:00,
2013-04-21 13:12:00,47.5,-99.9,-100.00,North,-999,-999.0,-999.0,29,-99.99,,,-99.99,,2013-04-21 17:12:00,
2013-04-21 13:17:00,48.0,-99.9,-100.00,North,-999,-999.0,-999.0,31,-99.99,,,-99.99,,2013-04-21 17:17:00,
2013-04-21 13:22:00,48.6,-99.9,-100.00,North,-999,-999.0,-999.0,29,-99.99,,,-99.99,,2013-04-21 17:22:00,
2013-04-21 13:27:00,49.1,-99.9,-100.00,North,-999,-999.0,-999.0,29,-99.99,,,-99.99,,2013-04-21 17:27:00,
2013-04-21 13:32:00,48.9,-99.9,-100.00,North,-999,-999.0,-999.0,28,-99.99,,,-99.99,,2013-04-21 17:32:00,
2013-04-21 13:37:00,48.9,-99.9,-100.00,North,-999,-999.0,-999.0,28,-99.99,,,-99.99,,2013-04-21 17:37:00,
2013-04-21 13:42:00,49.1,-99.9,-100.00,North,-999,-999.0,-999.0,28,-99.99,,,-99.99,,2013-04-21 17:42:00,
2013-04-21 13:47:00,49.3,-99.9,-100.00,North,-999,-999.0,-999.0,28,-99.99,,,-99.99,,2013-04-21 17:47:00,
2013-04-21 13:52:00,49.1,-99.9,-100.00,North,-999,-999.0,-999.0,28,-99.99,,,-99.99,,2013-04-21 17:52:00,
2013-04-21 13:57:00,49.8,-99.9,-100.00,North,-999,-999.0,-999.0,28,-99.99,,,-99.99,,2013-04-21 17:57:00,
2013-04-21 14:02:00,50.0,-99.9,-100.00,North,-999,-999.0,-999.0,27,-99.99,,,-99.99,,2013-04-21 18:02:00,
2013-04-21 14:07:00,50.2,-99.9,-100.00,North,-999,-999.0,-999.0,26,-99.99,,,-99.99,,2013-04-21 18:07:00,
2013-04-21 14:12:00,50.2,-99.9,-100.00,North,-999,-999.0,-999.0,27,-99.99,,,-99.99,,2013-04-21 18:12:00,
2013-04-21 14:17:00,50.2,-99.9,-100.00,North,-999,-999.0,-999.0,27,-99.99,,,-99.99,,2013-04-21 18:17:00,
2013-04-21 14:22:00,50.4,-99.9,-100.00,North,-999,-999.0,-999.0,27,-99.99,,,-99.99,,2013-04-21 18:22:00,
2013-04-21 14:27:00,50.5,-99.9,-100.00,North,-999,-999.0,-999.0,26,-99.99,,,-99.99,,2013-04-21 18:27:00,
2013-04-21 14:32:00,50.2,-99.9,-100.00,North,-999,-999.0,-999.0,27,-99.99,,,-99.99,,2013-04-21 18:32:00,
2013-04-21 14:37:00,50.4,-99.9,-100.00,North,-999,-999.0,-999.0,26,-99.99,,,-99.99,,2013-04-21 18:37:00,
2013-04-21 14:42:00,50.5,-99.9,-100.00,North,-999,-999.0,-999.0,26,-99.99,,,-99.99,,2013-04-21 18:42:00,
2013-04-21 14:47:00,50.9,-99.9,-100.00,North,-999,-999.0,-999.0,26,-99.99,,,-99.99,,2013-04-21 18:47:00,
2013-04-21 14:52:00,50.7,-99.9,-100.00,North,-999,-999.0,-999.0,26,-99.99,,,-99.99,,2013-04-21 18:52:00,
2013-04-21 14:57:00,50.7,-99.9,-100.00,North,-999,-999.0,-999.0,25,-99.99,,,-99.99,,2013-04-21 18:57:00,
2013-04-21 15:02:00,51.4,-99.9,-100.00,North,-999,-999.0,-999.0,26,-99.99,,,-99.99,,2013-04-21 19:02:00,
2013-04-21 15:07:00,51.8,-99.9,-100.00,North,-999,-999.0,-999.0,25,-99.99,,,-99.99,,2013-04-21 19:07:00,
2013-04-21 15:12:00,51.8,-99.9,-100.00,North,-999,-999.0,-999.0,25,-99.99,,,-99.99,,2013-04-21 19:12:00,
2013-04-21 15:17:00,51.8,-99.9,-100.00,North,-999,-999.0,-999.0,24,-99.99,,,-99.99,,2013-04-21 19:17:00,
2013-04-21 15:22:00,51.3,-99.9,-100.00,North,-999,-999.0,-999.0,24,-99.99,,,-99.99,,2013-04-21 19:22:00,
2013-04-21 15:27:00,51.6,-99.9,-100.00,North,-999,-999.0,-999.0,25,-99.99,,,-99.99,,2013-04-21 19:27:00,
2013-04-21 15:32:00,51.4,-99.9,-100.00,North,-999,-999.0,-999.0,24,-99.99,,,-99.99,,2013-04-21 19:32:00,
2013-04-21 15:37:00,52.0,-99.9,-100.00,North,-999,-999.0,-999.0,25,-99.99,,,-99.99,,2013-04-21 19:37:00,
2013-04-21 15:42:00,52.0,-99.9,-100.00,North,-999,-999.0,-999.0,25,-99.99,,,-99.99,,2013-04-21 19:42:00,
2013-04-21 15:47:00,52.3,-99.9,-100.00,North,-999,-999.0,-999.0,25,-99.99,,,-99.99,,2013-04-21 19:47:00,
2013-04-21 15:52:00,52.7,-99.9,-100.00,North,-999,-999.0,-999.0,25,-99.99,,,-99.99,,2013-04-21 19:52:00,
2013-04-21 15:57:00,52.2,-99.9,-100.00,North,-999,-999.0,-999.0,23,-99.99,,,-99.99,,2013-04-21 19:57:00,
2013-04-21 16:02:00,52.3,-99.9,-100.00,North,-999,-999.0,-999.0,24,-99.99,,,-99.99,,2013-04-21 20:02:00,
2013-04-21 16:07:00,52.9,-99.9,-100.00,North,-999,-999.0,-999.0,24,-99.99,,,-99.99,,2013-04-21 20:07:00,
2013-04-21 16:12:00,52.9,-99.9,-100.00,North,-999,-999.0,-999.0,24,-99.99,,,-99.99,,2013-04-21 20:12:00,
2013-04-21 16:17:00,53.2,-99.9,-100.00,North,-999,-999.0,-999.0,22,-99.99,,,-99.99,,2013-04-21 20:17:00,
2013-04-21 16:22:00,53.6,-99.9,-100.00,North,-999,-999.0,-999.0,23,-99.99,,,-99.99,,2013-04-21 20:22:00,
2013-04-21 16:27:00,53.4,-99.9,-100.00,North,-999,-999.0,-999.0,23,-99.99,,,-99.99,,2013-04-21 20:27:00,
2013-04-21 16:32:00,54.0,-99.9,-100.00,North,-999,-999.0,-999.0,23,-99.99,,,-99.99,,2013-04-21 20:32:00,
2013-04-21 16:37:00,53.8,-99.9,-100.00,North,-999,-999.0,-999.0,24,-99.99,,,-99.99,,2013-04-21 20:37:00,
2013-04-21 16:42:00,53.6,-99.9,-100.00,North,-999,-999.0,-999.0,23,-99.99,,,-99.99,,2013-04-21 20:42:00,
2013-04-21 16:47:00,53.2,-99.9,-100.00,North,-999,-999.0,-999.0,22,-99.99,,,-99.99,,2013-04-21 20:47:00,
2013-04-21 16:52:00,53.1,-99.9,-100.00,North,-999,-999.0,-999.0,23,-99.99,,,-99.99,,2013-04-21 20:52:00,
2013-04-21 16:57:00,53.1,-99.9,-100.00,North,-999,-999.0,-999.0,22,-99.99,,,-99.99,,2013-04-21 20:57:00,
2013-04-21 17:02:00,53.1,-99.9,-100.00,North,-999,-999.0,-999.0,23,-99.99,,,-99.99,,2013-04-21 21:02:00,
2013-04-21 17:07:00,53.1,-99.9,-100.00,North,-999,-999.0,-999.0,23,-99.99,,,-99.99,,2013-04-21 21:07:00,
2013-04-21 17:12:00,53.2,-99.9,-100.00,North,-999,-999.0,-999.0,23,-99.99,,,-99.99,,2013-04-21 21:12:00,
2013-04-21 17:17:00,53.4,-99.9,-100.00,North,-999,-999.0,-999.0,23,-99.99,,,-99.99,,2013-04-21 21:17:00,
2013-04-21 17:22:00,53.4,-99.9,-100.00,North,-999,-999.0,-999.0,23,-99.99,,,-99.99,,2013-04-21 21:22:00,
2013-04-21 17:27:00,52.7,-99.9,-100.00,North,-999,-999.0,-999.0,23,-99.99,,,-99.99,,2013-04-21 21:27:00,
2013-04-21 17:32:00,52.5,-99.9,-100.00,North,-999,-999.0,-999.0,23,-99.99,,,-99.99,,2013-04-21 21:32:00,
2013-04-21 17:37:00,52.3,-99.9,-100.00,North,-999,-999.0,-999.0,24,-99.99,,,-99.99,,2013-04-21 21:37:00,
2013-04-21 17:42:00,52.0,-99.9,-100.00,North,-999,-999.0,-999.0,23,-99.99,,,-99.99,,2013-04-21 21:42:00,
2013-04-21 17:47:00,51.4,-99.9,-100.00,North,-999,-999.0,-999.0,24,-99.99,,,-99.99,,2013-04-21 21:47:00,
2013-04-21 17:52:00,51.3,-99.9,-100.00,North,-999,-999.0,-999.0,24,-99.99,,,-99.99,,2013-04-21 21:52:00,
2013-04-21 17:57:00,51.3,-99.9,-100.00,North,-999,-999.0,-999.0,25,-99.99,,,-99.99,,2013-04-21 21:57:00,
2013-04-21 18:02:00,51.3,-99.9,-100.00,North,-999,-999.0,-999.0,25,-99.99,,,-99.99,,2013-04-21 22:02:00,
2013-04-21 18:07:00,50.9,-99.9,-100.00,North,-999,-999.0,-999.0,24,-99.99,,,-99.99,,2013-04-21 22:07:00,
2013-04-21 18:12:00,50.5,-99.9,-100.00,North,-999,-999.0,-999.0,25,-99.99,,,-99.99,,2013-04-21 22:12:00,
2013-04-21 18:17:00,50.2,-99.9,-100.00,North,-999,-999.0,-999.0,25,-99.99,,,-99.99,,2013-04-21 22:17:00,
2013-04-21 18:22:00,50.0,-99.9,-100.00,North,-999,-999.0,-999.0,25,-99.99,,,-99.99,,2013-04-21 22:22:00,
2013-04-21 18:27:00,49.8,-99.9,-100.00,North,-999,-999.0,-999.0,26,-99.99,,,-99.99,,2013-04-21 22:27:00,
2013-04-21 18:32:00,49.6,-99.9,-100.00,North,-999,-999.0,-999.0,25,-99.99,,,-99.99,,2013-04-21 22:32:00,
2013-04-21 18:37:00,49.5,-99.9,-100.00,North,-999,-999.0,-999.0,26,-99.99,,,-99.99,,2013-04-21 22:37:00,
2013-04-21 18:42:00,49.3,-99.9,-100.00,North,-999,-999.0,-999.0,26,-99.99,,,-99.99,,2013-04-21 22:42:00,
2013-04-21 18:47:00,49.1,-99.9,-100.00,North,-999,-999.0,-999.0,27,-99.99,,,-99.99,,2013-04-21 22:47:00,
2013-04-21 18:52:00,48.7,-99.9,-100.00,North,-999,-999.0,-999.0,27,-99.99,,,-99.99,,2013-04-21 22:52:00,
2013-04-21 18:57:00,48.6,-99.9,-100.00,North,-999,-999.0,-999.0,27,-99.99,,,-99.99,,2013-04-21 22:57:00,
2013-04-21 19:02:00,48.4,-99.9,-100.00,North,-999,-999.0,-999.0,27,-99.99,,,-99.99,,2013-04-21 23:02:00,
2013-04-21 19:07:00,48.0,-99.9,-100.00,North,-999,-999.0,-999.0,28,-99.99,,,-99.99,,2013-04-21 23:07:00,
2013-04-21 19:12:00,47.7,-99.9,-100.00,North,-999,-999.0,-999.0,29,-99.99,,,-99.99,,2013-04-21 23:12:00,
2013-04-21 19:17:00,47.3,-99.9,-100.00,North,-999,-999.0,-999.0,31,-99.99,,,-99.99,,2013-04-21 23:17:00,
2013-04-21 19:22:00,47.1,-99.9,-100.00,North,-999,-999.0,-999.0,33,-99.99,,,-99.99,,2013-04-21 23:22:00,
2013-04-21 19:27:00,46.8,-99.9,-100.00,North,-999,-999.0,-999.0,34,-99.99,,,-99.99,,2013-04-21 23:27:00,
2013-04-21 19:32:00,46.4,-99.9,-100.00,North,-999,-999.0,-999.0,34,-99.99,,,-99.99,,2013-04-21 23:32:00,
2013-04-21 19:37:00,46.0,-99.9,-100.00,North,-999,-999.0,-999.0,33,-99.99,,,-99.99,,2013-04-21 23:37:00,
2013-04-21 19:42:00,45.7,-99.9,-100.00,North,-999,-999.0,-999.0,34,-99.99,,,-99.99,,2013-04-21 23:42:00,
2013-04-21 19:47:00,45.3,-99.9,-100.00,North,-999,-999.0,-999.0,35,-99.99,,,-99.99,,2013-04-21 23:47:00,
2013-04-21 19:52:00,45.0,-99.9,-100.00,North,-999,-999.0,-999.0,35,-99.99,,,-99.99,,2013-04-21 23:52:00,
2013-04-21 19:57:00,44.6,-99.9,-100.00,North,-999,-999.0,-999.0,35,-99.99,,,-99.99,,2013-04-21 23:57:00,
2013-04-21 20:02:00,44.1,-99.9,-100.00,North,-999,-999.0,-999.0,38,-99.99,,,-99.99,,2013-04-22 00:02:00,
2013-04-21 20:07:00,43.5,-99.9,-100.00,North,-999,-999.0,-999.0,37,-99.99,,,-99.99,,2013-04-22 00:07:00,
2013-04-21 20:12:00,43.2,-99.9,-100.00,North,-999,-999.0,-999.0,37,-99.99,,,-99.99,,2013-04-22 00:12:00,
2013-04-21 20:17:00,42.8,-99.9,-100.00,North,-999,-999.0,-999.0,38,-99.99,,,-99.99,,2013-04-22 00:17:00,
2013-04-21 20:22:00,42.6,-99.9,-100.00,North,-999,-999.0,-999.0,37,-99.99,,,-99.99,,2013-04-22 00:22:00,
2013-04-21 20:27:00,42.6,-99.9,-100.00,North,-999,-999.0,-999.0,36,-99.99,,,-99.99,,2013-04-22 00:27:00,
2013-04-21 20:32:00,42.3,-99.9,-100.00,North,-999,-999.0,-999.0,39,-99.99,,,-99.99,,2013-04-22 00:32:00,
2013-04-21 20:37:00,41.7,-99.9,-100.00,North,-999,-999.0,-999.0,39,-99.99,,,-99.99,,2013-04-22 00:37:00,
2013-04-21 20:42:00,41.7,-99.9,-100.00,North,-999,-999.0,-999.0,38,-99.99,,,-99.99,,2013-04-22 00:42:00,
2013-04-21 20:47:00,41.5,-99.9,-100.00,North,-999,-999.0,-999.0,37,-99.99,,,-99.99,,2013-04-22 00:47:00,
2013-04-21 20:52:00,41.4,-99.9,-100.00,North,-999,-999.0,-999.0,38,-99.99,,,-99.99,,2013-04-22 00:52:00,
2013-04-21 20:57:00,41.2,-99.9,-100.00,North,-999,-999.0,-999.0,38,-99.99,,,-99.99,,2013-04-22 00:57:00,
2013-04-21 21:02:00,40.8,-99.9,-100.00,North,-999,-999.0,-999.0,39,-99.99,,,-99.99,,2013-04-22 01:02:00,
2013-04-21 21:07:00,40.6,-99.9,-100.00,North,-999,-999.0,-999.0,40,-99.99,,,-99.99,,2013-04-22 01:07:00,
2013-04-21 21:12:00,40.5,-99.9,-100.00,North,-999,-999.0,-999.0,41,-99.99,,,-99.99,,2013-04-22 01:12:00,
2013-04-21 21:17:00,40.3,-99.9,-100.00,North,-999,-999.0,-999.0,40,-99.99,,,-99.99,,2013-04-22 01:17:00,
2013-04-21 21:22:00,40.1,-99.9,-100.00,North,-999,-999.0,-999.0,41,-99.99,,,-99.99,,2013-04-22 01:22:00,
2013-04-21 21:27:00,39.7,-99.9,-100.00,North,-999,-999.0,-999.0,41,-99.99,,,-99.99,,2013-04-22 01:27:00,
2013-04-21 21:32:00,39.6,-99.9,-100.00,North,-999,-999.0,-999.0,44,-99.99,,,-99.99,,2013-04-22 01:32:00,
2013-04-21 21:37:00,39.4,-99.9,-100.00,North,-999,-999.0,-999.0,45,-99.99,,,-99.99,,2013-04-22 01:37:00,
2013-04-21 21:42:00,39.2,-99.9,-100.00,North,-999,-999.0,-999.0,46,-99.99,,,-99.99,,2013-04-22 01:42:00,
2013-04-21 21:47:00,38.8,-99.9,-100.00,North,-999,-999.0,-999.0,47,-99.99,,,-99.99,,2013-04-22 01:47:00,
2013-04-21 21:52:00,38.7,-99.9,-100.00,North,-999,-999.0,-999.0,47,-99.99,,,-99.99,,2013-04-22 01:52:00,
2013-04-21 21:57:00,38.5,-99.9,-100.00,North,-999,-999.0,-999.0,48,-99.99,,,-99.99,,2013-04-22 01:57:00,
2013-04-21 22:02:00,38.1,-99.9,-100.00,North,-999,-999.0,-999.0,48,-99.99,,,-99.99,,2013-04-22 02:02:00,
2013-04-21 22:07:00,37.9,-99.9,-100.00,North,-999,-999.0,-999.0,48,-99.99,,,-99.99,,2013-04-22 02:07:00,
2013-04-21 22:12:00,37.8,-99.9,-100.00,North,-999,-999.0,-999.0,49,-99.99,,,-99.99,,2013-04-22 02:12:00,
2013-04-21 22:17:00,37.8,-99.9,-100.00,North,-999,-999.0,-999.0,48,-99.99,,,-99.99,,2013-04-22 02:17:00,
2013-04-21 22:22:00,37.4,19.6,-100.00,North,-999,-999.0,-999.0,50,-99.99,,,-99.99,,2013-04-22 02:22:00,
2013-04-21 22:27:00,38.1,-99.9,-100.00,North,-999,-999.0,-999.0,46,-99.99,,,-99.99,,2013-04-22 02:27:00,
2013-04-21 22:32:00,38.3,-99.9,-100.00,North,-999,-999.0,-999.0,49,-99.99,,,-99.99,,2013-04-22 02:32:00,
2013-04-21 22:37:00,38.3,-99.9,-100.00,North,-999,-999.0,-999.0,50,-99.99,,,-99.99,,2013-04-22 02:37:00,
2013-04-21 22:42:00,38.5,21.0,-100.00,North,-999,-999.0,-999.0,51,-99.99,,,-99.99,,2013-04-22 02:42:00,
2013-04-21 22:47:00,38.5,21.2,-100.00,North,-999,-999.0,-999.0,52,-99.99,,,-99.99,,2013-04-22 02:47:00,
2013-04-21 22:52:00,38.3,21.3,-100.00,North,-999,-999.0,-999.0,52,-99.99,,,-99.99,,2013-04-22 02:52:00,
2013-04-21 22:57:00,38.1,21.4,-100.00,North,-999,-999.0,-999.0,53,-99.99,,,-99.99,,2013-04-22 02:57:00,
2013-04-21 23:02:00,38.1,22.1,-100.00,North,-999,-999.0,-999.0,55,-99.99,,,-99.99,,2013-04-22 03:02:00,
2013-04-21 23:07:00,37.9,21.6,-100.00,North,-999,-999.0,-999.0,54,-99.99,,,-99.99,,2013-04-22 03:07:00,
2013-04-21 23:12:00,37.8,21.8,-100.00,North,-999,-999.0,-999.0,55,-99.99,,,-99.99,,2013-04-22 03:12:00,
2013-04-21 23:17:00,37.6,22.2,-100.00,North,-999,-999.0,-999.0,57,-99.99,,,-99.99,,2013-04-22 03:17:00,
2013-04-21 23:22:00,37.6,22.4,-100.00,North,-999,-999.0,-999.0,57,-99.99,,,-99.99,,2013-04-22 03:22:00,
2013-04-21 23:27:00,37.4,22.3,-100.00,North,-999,-999.0,-999.0,58,-99.99,,,-99.99,,2013-04-22 03:27:00,
2013-04-21 23:33:00,37.2,22.9,-100.00,North,-999,-999.0,-999.0,60,-99.99,,,-99.99,,2013-04-22 03:33:00,
2013-04-21 23:38:00,36.9,22.0,-100.00,North,-999,-999.0,-999.0,58,-99.99,,,-99.99,,2013-04-22 03:38:00,
2013-04-21 23:43:00,36.5,22.1,-100.00,North,-999,-999.0,-999.0,60,-99.99,,,-99.99,,2013-04-22 03:43:00,
2013-04-21 23:48:00,36.5,22.1,-100.00,North,-999,-999.0,-999.0,59,-99.99,,,-99.99,,2013-04-22 03:48:00,
2013-04-21 23:53:00,36.3,22.2,-100.00,North,-999,-999.0,-999.0,60,-99.99,,,-99.99,,2013-04-22 03:53:00,
2013-04-21 23:58:00,36.1,22.5,-100.00,North,-999,-999.0,-999.0,62,-99.99,,,-99.99,,2013-04-22 03:58:00,